Regional Weather Roundup
Issued by NWS

Home | Current Version | Previous Version | Text Only | Print | Product List | Glossary Off
Versions: 1 2 3 4 5 6 7 8 9 10 11 12 13 14 15 16 17 18 19 20 21 22 23 24 25 26 27 28 29 30 31 32 33 34 35 36 37 38 39 40 41 42 43 44 45 46 47 48 49 50

000
ASUS43 KMKX 221020
RWRWI

WISCONSIN REGIONAL WEATHER ROUNDUP
NATIONAL WEATHER SERVICE MILWAUKEE/SULLIVAN WI
400 AM CST THU FEB 22 2018

NOTE: "FAIR" INDICATES FEW OR NO CLOUDS BELOW 12,000 FEET WITH NO
SIGNIFICANT WEATHER AND/OR OBSTRUCTIONS TO VISIBILITY.

WIZ001-002-006>008-014>016-023>028-221100-
NORTHWEST WISCONSIN

CITY           SKY/WX    TMP DP  RH WIND       PRES   REMARKS
SUPERIOR ARPT  FAIR      -6 -10  83 SW5       30.64S WCI -17
ASHLAND        FAIR      -2  -4  91 S6        30.62F WCI -14
HAYWARD        FAIR      -6 -12  75 CALM      30.59F
SIREN          FAIR      -6 -10  81 CALM      30.61S
CUMBERLAND     FAIR      -6 -13  71 N5        30.57F WCI -17
RICE LAKE      FAIR      -6 -10  83 CALM      30.62R
CHETEK         FAIR      -4  -8  84 MISG      30.61R
LADYSMITH      FAIR      -2  -5  84 CALM      30.59S
EAU CLAIRE     FAIR       2  -1  88 NE5       30.60S WCI  -8
MENOMONIE      FAIR       4   0  82 CALM      30.61S
NEW RICHMOND   FAIR      -6 -11  79 CALM      30.60S
OSCEOLA        FAIR      -2  -6  82 CALM      30.64S
$$

WIZ003>005-009-010-017-018-221100-
NORTH CENTRAL WISCONSIN

CITY           SKY/WX    TMP DP  RH WIND       PRES   REMARKS
MANITOWISH WTR FAIR     -10 -13  83 CALM      30.55F
ARBOR VITAE    FAIR      -4  -8  83 CALM      30.54F
WOODRUFF       FAIR      -4  -8  83 CALM      30.54F
RHINELANDER    FAIR       3   0  87 CALM      30.54F
EAGLE RIVER    FAIR      -5 -11  77 CALM      30.54S
LAND O LAKES   FAIR     -13 -18  77 CALM      30.56F
PHILLIPS       FAIR      -5  -9  82 CALM      30.56S
TOMAHAWK       FAIR      -2  -5  85 CALM      30.55F
MEDFORD        FAIR       2  -2  82 E3        30.55R
MERRILL        FAIR       4   0  84 CALM      30.59R
$$

WIZ029-030-035-036-043>047-221100-
CENTRAL WISCONSIN

CITY           SKY/WX    TMP DP  RH WIND       PRES   REMARKS
WAUSAU         FAIR       5   2  87 CALM      30.57R
MOSINEE        FAIR      10   5  79 NE3       30.59R
MARSHFIELD     FAIR      10   3  73 E3        30.57R
STEVENS POINT  MOCLDY    10   6  82 CALM      30.60R
WAUPACA        MOCLDY    19  12  73 CALM      30.63R
WAUTOMA        MOCLDY    18  11  74 E3        30.62R
WISC RAPIDS    CLOUDY    14   7  73 CALM      30.61R
CAMP DOUGLAS   MOCLDY    18  13  79 CALM      30.60R
$$

WIZ011>013-019>022-031-037>040-048>050-221100-
NORTHEAST WISCONSIN

CITY           SKY/WX    TMP DP  RH WIND       PRES   REMARKS
ANTIGO         FAIR       8   3  81 NE5       30.55S WCI  -1
SHAWANO        FAIR      17  10  73 NE3       30.62R
OCONTO         FAIR      17  10  75 NE3       30.64S
STURGEON BAY   FAIR      17  12  80 N3        30.63F
GREEN BAY      FAIR      19  10  68 NE5       30.62F WCI  12
MANITOWOC      CLOUDY    21  13  71 N5        30.62F WCI  15
APPLETON       FAIR      19   9  63 E5        30.59S WCI  13
CLINTONVILLE   FAIR      16   8  69 CALM      30.62R
OSHKOSH        CLOUDY    20  11  68 E3        30.60S
$$

WIZ032>034-041-042-053>061-221100-
SOUTHWEST WISCONSIN

CITY           SKY/WX    TMP DP  RH WIND       PRES   REMARKS
LA CROSSE      CLOUDY    20  15  81 CALM      30.61S
SPARTA         CLOUDY    19  15  87 NE3       30.62R
VIROQUA        CLOUDY    20  18  90 E7        30.55F WCI  11
BOSCOBEL       CLOUDY    24  15  68 NE6       30.60F WCI  17
PRAIRIE DU CHI CLOUDY    24  14  65 NE3       30.59S
PLATTEVILLE    MOCLDY    24  17  73 NE9       30.54S WCI  14
$$

WIZ056-057-062-063-064-067-068-221100-
SOUTH CENTRAL WISCONSIN

CITY           SKY/WX    TMP DP  RH WIND       PRES   REMARKS
REEDSBURG      CLOUDY    20  13  75 E6        30.59F WCI  13
BARABOO/DELLS  CLOUDY    20  13  74 NE5       30.59S WCI  14
LONE ROCK      CLOUDY    24  15  68 NE6       30.61S WCI  17
MINERAL POINT  MOCLDY    27  18  69 NE8       30.54S WCI  18
MADISON        CLOUDY    22  14  71 NE8       30.58F WCI  12
MIDDLETON      CLOUDY    24  15  69 NE7       30.58F WCI  16
WATERTOWN      CLOUDY    23  14  69 NE5       30.57S WCI  17
MONROE         MOCLDY    25  18  74 NE12      30.53S WCI  14
JANESVILLE     FAIR      27  19  74 NE7       30.56R WCI  19
$$

WIZ051-052-058>065-066-070>072-221100-
SOUTHEAST WISCONSIN

CITY           SKY/WX    TMP DP  RH WIND       PRES   REMARKS
MILWAUKEE      CLOUDY    30  23  75 NE10      30.57F WCI  21
WAUKESHA       MOCLDY    23  16  74 NE6       30.57F WCI  16
MILWAUKEE/TIMM MOCLDY    25  16  68 N8        30.58F WCI  16
RACINE         FAIR      29  21  72 NE12      30.59S WCI  19
BURLINGTON     FAIR      25  17  73 NE7       30.56S WCI  17
KENOSHA        FAIR      29  21  72 NE10      30.57S WCI  20
FOND DU LAC    CLOUDY    22  11  62 NE7       30.60F WCI  13
SHEBOYGAN      CLOUDY    22  15  75 NE7       30.59F WCI  13
WEST BEND      CLOUDY    23  18  80 NE5       30.58F WCI  17
JUNEAU         CLOUDY    21  13  71 N6        30.59S WCI  14
$$

LSZ147-162-221100-
LAKE SUPERIOR

STATION/POSITION TIME  TEMP    WIND        PRES    WAVE
                       AIR SEA DIR/SP/G            HT/PER
                 (UTC) (F)     (DEG/KT/KT) (MB)    (FT/S)
DEVILS ISLAND    1000   13     200/  8/  9 1038.4F
SAXON HARBOR     0940    1     190/  5/  7 1036.9F
$$

LMZ867-665-643>646-221100-
LAKE MICHIGAN

STATION/POSITION TIME  TEMP    WIND        PRES    WAVE
                       AIR SEA DIR/SP/G            HT/PER
                 (UTC) (F)     (DEG/KT/KT) (MB)    (FT/S)
NORTHPORT PIER   1004   20                 1036.9
KEWAUNEE LAKESHO 0954   22     350/  2/  6 1036.0F
SHEBOYGAN LAKESH 1000   26      10/ 13/ 15 1036.9F
PORT WASHINGTON  0940   25     340/  4/  8 1036.9F
MILWAUKEE LAKESH 1000   30      60/ 14/ 16   N/A
KENOSHA   LAKESH 1000   31      40/ 12/ 14 1034.9
$$

TC  - TEMPERATURE IN CELSIUS
VSB - VISIBILITY IN STATUTE MILES
WCI - WIND CHILL INDEX
HX  - HEAT INDEX





USA.gov is the U.S. government's official web portal to all federal, state and local government web resources and services.